Debrecen, Hungary

2:53 AM CEST on May 23, 2017 (GMT +0200)
Debrecen

Weather History for LHDC - June, 2013

Change the Weather History Date:

Wednesday, June 12, 2013

  Actual Average Record
Temperature  
Mean Temperature 67 °F -  
Max Temperature 75 °F 78 °F - ()
Min Temperature 59 °F 57 °F - ()
Cooling Degree Days 2    
Growing Degree Days 17 (Base 50)    
Moisture  
Dew Point 57 °F    
Average Humidity 67    
Maximum Humidity 88    
Minimum Humidity 49    
Precipitation  
Precipitation 0.00 in 0.10 in - ()
Sea Level Pressure  
Sea Level Pressure 29.94 in    
Wind  
Wind Speed 12 mph ()    
Max Wind Speed 18 mph    
Max Gust Speed 28 mph    
Visibility 6.7 miles    
Events      
T = Trace of Precipitation, MM = Missing Value Source: Averaged Metar Reports

Daily Weather History Graph

Daily Weather History Graph

Search for Another Location

Airport or City:

Trip Planner

Search our weather history database for the weather conditions in past years. The results will help you decide how hot, cold, wet, or windy it might be!

Date:

Astronomy

Jun. 12, 2013 Rise Set
Actual Time 4:36 AM CEST 8:31 PM CEST
Civil Twilight 3:55 AM CEST 9:11 PM CEST
Nautical Twilight 3:00 AM CEST 10:06 PM CEST
Astronomical Twilight 1:35 AM CEST 11:32 PM CEST
Moon 8:09 AM CEST (6/12) 10:43 PM CEST (6/12)
Length of Visible Light 17h 15m
Length of Day
15h 54m
Waxing Crescent, 12% of the Moon is Illuminated
Jun 12
Waxing Crescent
Jun 16
First Quarter
Jun 23
Full
Jun 30
Last Quarter
Jul 8
New

Hourly Weather History & Observations

Time (CEST) Temp. Dew Point Humidity Pressure Visibility Wind Dir Wind Speed Gust Speed Precip Events Conditions
2:00 AM 60 °F 55 °F 80% 29.86 in - NNE 11.2 mph - -  
4:45 AM 59.0 °F 55.4 °F 88% 29.86 in - NNE 13.8 mph - N/A   Clear
5:45 AM 59.0 °F 55.4 °F 88% 29.89 in - NNE 12.7 mph - N/A   Clear
6:15 AM 60.8 °F 55.4 °F 82% 29.89 in - NNE 15.0 mph - N/A   Clear
6:45 AM 62.6 °F 55.4 °F 77% 29.89 in - North 15.0 mph - N/A   Clear
7:00 AM - - N/A% - - NNE 16.1 mph 27.6 mph N/A   Clear
7:15 AM 62.6 °F 55.4 °F 77% 29.89 in - NNE 13.8 mph - N/A   Clear
7:45 AM 64.4 °F 55.4 °F 73% 29.92 in - NNE 17.3 mph - N/A   Clear
8:00 AM 64 °F 55 °F 64% 29.90 in 22 mi NNE 17.9 mph - -   Partly Cloudy
8:15 AM 64.4 °F 55.4 °F 73% 29.92 in 6.2 mi North 12.7 mph - N/A   Mostly Cloudy
8:45 AM 66.2 °F 55.4 °F 68% 29.92 in 6.2 mi North 16.1 mph - N/A   Mostly Cloudy
9:15 AM 68.0 °F 57.2 °F 68% 29.92 in 6.2 mi North 15.0 mph - N/A   Mostly Cloudy
9:45 AM 68.0 °F 57.2 °F 68% 29.92 in 6.2 mi North 11.5 mph - N/A   Mostly Cloudy
10:00 AM - - N/A% - 6.2 mi NNE 16.1 mph 27.6 mph N/A   Mostly Cloudy
10:15 AM 69.8 °F 55.4 °F 60% 29.92 in 6.2 mi North 13.8 mph - N/A   Mostly Cloudy
10:45 AM 69.8 °F 55.4 °F 60% 29.95 in 6.2 mi NNE 13.8 mph - N/A   Mostly Cloudy
11:15 AM 71.6 °F 57.2 °F 60% 29.95 in 6.2 mi NNE 13.8 mph - N/A   Mostly Cloudy
11:45 AM 71.6 °F 57.2 °F 60% 29.95 in 6.2 mi NNE 15.0 mph - N/A   Mostly Cloudy
12:15 PM 71.6 °F 57.2 °F 60% 29.95 in 6.2 mi North 12.7 mph - N/A   Mostly Cloudy
12:45 PM 73.4 °F 59.0 °F 61% 29.95 in 6.2 mi NNE 15.0 mph - N/A   Mostly Cloudy
1:00 PM - - N/A% - 6.2 mi North 11.5 mph - N/A   Scattered Clouds
1:15 PM 73.4 °F 57.2 °F 57% 29.95 in 6.2 mi NNE 13.8 mph - N/A   Mostly Cloudy
1:45 PM 73.4 °F 57.2 °F 57% 29.95 in 6.2 mi NNE 13.8 mph - N/A   Scattered Clouds
2:00 PM 73 °F 58 °F 49% 29.92 in 22 mi NNE 13.4 mph - -   Partly Cloudy
2:15 PM 73.4 °F 59.0 °F 61% 29.92 in 6.2 mi North 13.8 mph - N/A   Scattered Clouds
2:45 PM 75.2 °F 59.0 °F 57% 29.92 in 6.2 mi North 11.5 mph - N/A   Mostly Cloudy
3:45 PM 73.4 °F 57.2 °F 57% 29.95 in 6.2 mi NNE 15.0 mph - N/A   Mostly Cloudy
4:15 PM 75.2 °F 59.0 °F 57% 29.95 in 6.2 mi North 13.8 mph - N/A   Mostly Cloudy
4:45 PM 73.4 °F 59.0 °F 61% 29.95 in 6.2 mi North 15.0 mph - N/A   Scattered Clouds
5:15 PM 73.4 °F 59.0 °F 61% 29.95 in 6.2 mi NNE 13.8 mph - N/A   Scattered Clouds
5:45 PM 73.4 °F 59.0 °F 61% 29.95 in 6.2 mi North 13.8 mph - N/A   Scattered Clouds
5:52 PM 73.4 °F 57.2 °F 57% 29.95 in 6.2 mi North 16.1 mph - N/A   Scattered Clouds
6:03 PM 71.6 °F 59.0 °F 64% 29.98 in - NE 16.1 mph 27.6 mph N/A   Unknown
6:15 PM 69.8 °F 55.4 °F 60% 29.98 in 6.2 mi East 15.0 mph 27.6 mph N/A   Mostly Cloudy
6:29 PM 66.2 °F 55.4 °F 68% 29.98 in - East 13.8 mph - N/A   Unknown
6:45 PM 66.2 °F 57.2 °F 73% 30.01 in 6.2 mi East 10.4 mph - N/A   Mostly Cloudy
7:15 PM 64.4 °F 57.2 °F 77% 29.98 in 6.2 mi ESE 2.3 mph - N/A   Mostly Cloudy
7:45 PM 64.4 °F 57.2 °F 77% 29.98 in 6.2 mi North 2.3 mph - N/A   Scattered Clouds
8:00 PM 65 °F 57 °F 69% 29.98 in 19 mi North 2.2 mph - -   Partly Cloudy
8:15 PM 64.4 °F 57.2 °F 77% 29.98 in - NW 4.6 mph - N/A   Clear
8:45 PM 66.2 °F 55.4 °F 68% 29.98 in - North 9.2 mph - N/A   Clear